Zurück zum Katalog

USA 360

AktivMilitärVLEO
NORAD 59820·PAYLOAD·🇺🇸 United States

Gestartet May 22, 2024 von Vandenberg Space Force Base

Loading…

Nächste Überflüge (nächste 24 Stunden)

TLE

VeraltetSource: Mike McCants

Epoche: Aug 12, 2026, 23:15 UTC

1 59820U 24096G   26224.96888661 0.00000000  00000-0  00000-0 0    06
2 59820  70.0200 169.5097 0004000 152.1900 207.8100 14.96713160    00

Verfolge USA 360 in Echtzeit mit AllMySat

Download on the App Store